sat.trackr.live / text

‹ back to catalog

STARLINK-6083

NORAD 56109 · 2023-046S

PAYLOAD ACTIVE UNKNOWN

§ Identity

Operator
Country
US
Launch date
2023-03-29
Launch site
AFETR
Launch vehicle
Mass (kg)
RCS (m²)

Purposes: comms

External: N2YO · Heavens-Above · Gunter

§ Orbital elements

Epoch: 2026-05-24T23:09:09.095040Z

Period
94.27 min
Inclination
43.0053°
Eccentricity
0.0001297
Mean motion
15.27573392 rev/d
Perigee alt
482.2 km
Apogee alt
484.0 km
Semi-major
6,861.2 km
B*
2.1152e-6
RAAN
91.0543°
Arg perigee
284.3415°
Mean anomaly
75.7292°
Rev number
17,369

§ Raw data

STARLINK-60831 56109U 23046S   26144.96468860 -.00000204  00000+0  21152-5 0  99922 56109  43.0053  91.0543 0001297 284.3415  75.7292 15.27573392173698

JSON: /api/v1/satellites/56109 · /tle

For live sub-satellite position, see the globe view (requires WebGL).

§ Visibility from observer

Set your observer location to see the next 7 days of passes ≥ 10°. The values pass through the URL so the page stays shareable.

No JS? Fill the form by hand. The geolocation button needs JavaScript.